N254MR NLWW-NSFA

Flight info

Callsign N254MR
Flight time 0h 45m
Altitude 37000
Route HOI B577 OVLAD DCT UVUTI UVUTI2B
Aircraft C750/M-SBDE3FGHRWXY/S

Departure

Time 2026-04-23 12:25
Airport Hihifo Airport (NLWW)

Arrival

Time 2026-04-23 13:10
Airport Faleolo International Airport (NSFA)
Time Latitude Longitude Altitude Speed Heading
2026-04-23 12:10 -13.24018 -176.19646 87 ft 0 kts 270°
2026-04-23 12:22 -13.24022 -176.19655 87 ft 0 kts 190°
2026-04-23 12:23 -13.24037 -176.19623 88 ft 10 kts 41°
2026-04-23 12:23 -13.23970 -176.19591 85 ft 14 kts 358°
2026-04-23 12:23 -13.23847 -176.19606 75 ft 19 kts 306°
2026-04-23 12:23 -13.23831 -176.19753 72 ft 21 kts 270°
2026-04-23 12:24 -13.23816 -176.19873 73 ft 8 kts 242°
2026-04-23 12:24 -13.23831 -176.19862 73 ft 0 kts 89°
2026-04-23 12:24 -13.23831 -176.19707 72 ft 72 kts 89°
2026-04-23 12:24 -13.23824 -176.18843 104 ft 162 kts 90°
2026-04-23 12:25 -13.24066 -176.17613 926 ft 195 kts 117°
2026-04-23 12:25 -13.24598 -176.16519 2802 ft 170 kts 110°
2026-04-23 12:25 -13.24976 -176.15424 3891 ft 182 kts 109°
2026-04-23 12:25 -13.25503 -176.14212 4909 ft 199 kts 107°
2026-04-23 12:26 -13.25618 -176.12691 5694 ft 232 kts 93°
2026-04-23 12:26 -13.25812 -176.10982 6593 ft 260 kts 98°
2026-04-23 12:26 -13.26065 -176.09132 7725 ft 270 kts 98°
2026-04-23 12:26 -13.26339 -176.07228 8943 ft 275 kts 98°
2026-04-23 12:27 -13.26615 -176.05302 10115 ft 279 kts 98°
2026-04-23 12:27 -13.26902 -176.03320 11193 ft 286 kts 98°
2026-04-23 12:27 -13.27194 -176.01309 12080 ft 297 kts 98°
2026-04-23 12:27 -13.27509 -175.99124 12732 ft 317 kts 98°
2026-04-23 12:28 -13.27835 -175.96864 13607 ft 326 kts 98°
2026-04-23 12:28 -13.28168 -175.94559 14578 ft 331 kts 98°
2026-04-23 12:28 -13.28504 -175.92226 15520 ft 335 kts 98°
2026-04-23 12:28 -13.28842 -175.89880 16404 ft 340 kts 98°
2026-04-23 12:29 -13.29187 -175.87488 17238 ft 345 kts 98°
2026-04-23 12:29 -13.29541 -175.85034 18065 ft 349 kts 98°
2026-04-23 12:29 -13.29896 -175.82579 18852 ft 354 kts 97°
2026-04-23 12:29 -13.30258 -175.80058 19639 ft 358 kts 97°
2026-04-23 12:30 -13.30620 -175.77530 20392 ft 361 kts 97°
2026-04-23 12:30 -13.30987 -175.74983 21127 ft 365 kts 96°
2026-04-23 12:30 -13.31356 -175.72394 21782 ft 369 kts 96°
2026-04-23 12:30 -13.31734 -175.69771 22456 ft 373 kts 96°
2026-04-23 12:31 -13.32114 -175.67110 23109 ft 378 kts 96°
2026-04-23 12:31 -13.32493 -175.64433 23708 ft 383 kts 96°
2026-04-23 12:31 -13.32884 -175.61710 24339 ft 388 kts 96°
2026-04-23 12:31 -13.33274 -175.58972 24984 ft 391 kts 97°
2026-04-23 12:32 -13.33668 -175.56200 25594 ft 395 kts 97°
2026-04-23 12:32 -13.34067 -175.53412 26189 ft 399 kts 97°
2026-04-23 12:32 -13.34473 -175.50566 26756 ft 403 kts 97°
2026-04-23 12:32 -13.34879 -175.47705 27279 ft 408 kts 97°
2026-04-23 12:33 -13.35288 -175.44841 27833 ft 411 kts 97°
2026-04-23 12:33 -13.35706 -175.41898 28341 ft 416 kts 97°
2026-04-23 12:33 -13.36124 -175.38959 28824 ft 420 kts 97°
2026-04-23 12:33 -13.36551 -175.35953 28920 ft 435 kts 97°
2026-04-23 12:34 -13.36994 -175.32823 28946 ft 449 kts 97°
2026-04-23 12:34 -13.37456 -175.29573 28949 ft 464 kts 97°
2026-04-23 12:34 -13.37924 -175.26257 28943 ft 478 kts 97°
2026-04-23 12:34 -13.38411 -175.22815 28942 ft 491 kts 97°
2026-04-23 12:35 -13.38903 -175.19345 28940 ft 502 kts 97°
2026-04-23 12:35 -13.39411 -175.15739 28939 ft 513 kts 97°
2026-04-23 12:35 -13.39927 -175.12076 28938 ft 524 kts 97°
2026-04-23 12:35 -13.40452 -175.08353 28937 ft 533 kts 97°
2026-04-23 12:36 -13.41510 -175.00839 28932 ft 528 kts 97°
2026-04-23 12:36 -13.42556 -174.93365 28931 ft 532 kts 97°
2026-04-23 12:37 -13.43608 -174.85847 28928 ft 534 kts 97°
2026-04-23 12:37 -13.44659 -174.78316 28921 ft 528 kts 97°
2026-04-23 12:38 -13.45771 -174.70911 28910 ft 523 kts 102°
2026-04-23 12:38 -13.47630 -174.63725 28932 ft 518 kts 104°
2026-04-23 12:39 -13.49470 -174.56580 28923 ft 522 kts 104°
2026-04-23 12:39 -13.51317 -174.49353 28926 ft 531 kts 104°
2026-04-23 12:40 -13.53201 -174.41974 28924 ft 536 kts 104°
2026-04-23 12:40 -13.55074 -174.34613 28923 ft 532 kts 103°
2026-04-23 12:41 -13.56956 -174.27226 28926 ft 533 kts 103°
2026-04-23 12:41 -13.58818 -174.19904 28921 ft 525 kts 104°
2026-04-23 12:42 -13.60633 -174.12758 28921 ft 508 kts 103°
2026-04-23 12:42 -13.62390 -174.05821 28922 ft 495 kts 104°
2026-04-23 12:43 -13.64101 -173.99068 28921 ft 485 kts 103°
2026-04-23 12:43 -13.65398 -173.93944 28922 ft 478 kts 103°
2026-04-23 12:44 -13.66918 -173.87924 28923 ft 471 kts 103°
2026-04-23 12:44 -13.68553 -173.81448 28922 ft 465 kts 104°
2026-04-23 12:45 -13.70165 -173.75058 28923 ft 460 kts 103°
2026-04-23 12:45 -13.70976 -173.71848 28925 ft 472 kts 103°
2026-04-23 12:45 -13.71804 -173.68545 28933 ft 489 kts 103°
2026-04-23 12:46 -13.72673 -173.65094 28934 ft 506 kts 103°
2026-04-23 12:46 -13.73566 -173.61546 28941 ft 522 kts 103°
2026-04-23 12:46 -13.74496 -173.57849 28952 ft 536 kts 103°
2026-04-23 12:46 -13.75404 -173.54233 29088 ft 510 kts 103°
2026-04-23 12:47 -13.76280 -173.50752 28370 ft 503 kts 103°
2026-04-23 12:47 -13.77152 -173.47266 27698 ft 503 kts 103°
2026-04-23 12:47 -13.78021 -173.43805 27031 ft 502 kts 103°
2026-04-23 12:47 -13.78884 -173.40358 26298 ft 503 kts 103°
2026-04-23 12:48 -13.79759 -173.36868 25555 ft 503 kts 103°
2026-04-23 12:48 -13.80622 -173.33417 24823 ft 502 kts 103°
2026-04-23 12:48 -13.81492 -173.29935 24086 ft 501 kts 103°
2026-04-23 12:48 -13.82351 -173.26506 23371 ft 484 kts 103°
2026-04-23 12:49 -13.83164 -173.23254 22614 ft 455 kts 102°
2026-04-23 12:49 -13.83928 -173.20198 21876 ft 432 kts 102°
2026-04-23 12:49 -13.84650 -173.17294 21157 ft 412 kts 102°
2026-04-23 12:49 -13.85365 -173.14409 20494 ft 415 kts 102°
2026-04-23 12:50 -13.86081 -173.11539 19878 ft 418 kts 102°
2026-04-23 12:50 -13.86800 -173.08641 19256 ft 421 kts 103°
2026-04-23 12:50 -13.87530 -173.05714 18630 ft 422 kts 103°
2026-04-23 12:50 -13.88253 -173.02811 18007 ft 422 kts 103°
2026-04-23 12:51 -13.88977 -172.99892 17379 ft 422 kts 103°
2026-04-23 12:51 -13.89704 -172.96973 16751 ft 422 kts 103°
2026-04-23 12:51 -13.90433 -172.94032 16117 ft 421 kts 103°
2026-04-23 12:51 -13.91159 -172.91112 15485 ft 420 kts 103°
2026-04-23 12:52 -13.91879 -172.88205 14854 ft 419 kts 103°
2026-04-23 12:52 -13.92602 -172.85289 14216 ft 418 kts 103°
2026-04-23 12:52 -13.93320 -172.82402 13582 ft 416 kts 104°
2026-04-23 12:52 -13.94029 -172.79527 12947 ft 414 kts 104°
2026-04-23 12:53 -13.94734 -172.76695 12318 ft 406 kts 104°
2026-04-23 12:53 -13.95419 -172.73923 11743 ft 389 kts 104°
2026-04-23 12:53 -13.96069 -172.71297 11180 ft 372 kts 104°
2026-04-23 12:53 -13.96698 -172.68762 10641 ft 357 kts 104°
2026-04-23 12:54 -13.97308 -172.66367 10228 ft 333 kts 104°
2026-04-23 12:54 -13.97894 -172.64117 9513 ft 323 kts 105°
2026-04-23 12:54 -13.98476 -172.61952 9138 ft 302 kts 105°
2026-04-23 12:54 -13.99030 -172.59927 8707 ft 287 kts 105°
2026-04-23 12:55 -13.99556 -172.57971 8053 ft 284 kts 105°
2026-04-23 12:55 -14.00083 -172.56052 7574 ft 273 kts 105°
2026-04-23 12:55 -14.00578 -172.54257 7488 ft 257 kts 105°
2026-04-23 12:55 -14.00985 -172.52425 7044 ft 265 kts 99°
2026-04-23 12:56 -14.01308 -172.50525 6659 ft 272 kts 99°
2026-04-23 12:56 -14.01630 -172.48584 6291 ft 272 kts 97°
2026-04-23 12:56 -14.01645 -172.46704 6069 ft 258 kts 83°
2026-04-23 12:56 -14.01186 -172.44957 5662 ft 254 kts 68°
2026-04-23 12:57 -14.00289 -172.43402 5272 ft 249 kts 55°
2026-04-23 12:57 -13.99162 -172.42050 4807 ft 249 kts 50°
2026-04-23 12:57 -13.98022 -172.40726 4412 ft 245 kts 52°
2026-04-23 12:57 -13.96920 -172.39349 3790 ft 248 kts 54°
2026-04-23 12:58 -13.95866 -172.38037 3642 ft 239 kts 53°
2026-04-23 12:58 -13.94767 -172.36700 3328 ft 245 kts 53°
2026-04-23 12:58 -13.93697 -172.35342 3149 ft 238 kts 54°
2026-04-23 12:58 -13.92677 -172.33998 2848 ft 247 kts 50°
2026-04-23 12:59 -13.91009 -172.33229 2894 ft 279 kts 359°
2026-04-23 12:59 -13.89278 -172.34128 3287 ft 289 kts 320°
2026-04-23 12:59 -13.87601 -172.35286 3147 ft 289 kts 349°
2026-04-23 12:59 -13.85868 -172.34805 2605 ft 265 kts 50°
2026-04-23 13:00 -13.85073 -172.33125 2342 ft 250 kts 79°
2026-04-23 13:00 -13.84869 -172.31474 2148 ft 224 kts 88°
2026-04-23 13:00 -13.84797 -172.29834 2153 ft 231 kts 87°
2026-04-23 13:00 -13.84683 -172.28070 2002 ft 252 kts 87°
2026-04-23 13:01 -13.84545 -172.26376 2033 ft 227 kts 84°
2026-04-23 13:01 -13.84230 -172.24770 1663 ft 236 kts 78°
2026-04-23 13:01 -13.83880 -172.23137 1749 ft 226 kts 79°
2026-04-23 13:01 -13.83491 -172.21523 1689 ft 239 kts 78°
2026-04-23 13:02 -13.83855 -172.19858 1975 ft 246 kts 124°
2026-04-23 13:02 -13.85221 -172.18877 2402 ft 239 kts 161°
2026-04-23 13:02 -13.86809 -172.18961 2732 ft 236 kts 200°
2026-04-23 13:02 -13.88108 -172.20125 2572 ft 264 kts 234°
2026-04-23 13:03 -13.88759 -172.21916 2565 ft 270 kts 262°
2026-04-23 13:03 -13.88623 -172.23830 2599 ft 272 kts 286°
2026-04-23 13:03 -13.87816 -172.25549 2805 ft 262 kts 307°
2026-04-23 13:03 -13.86538 -172.26894 2879 ft 260 kts 326°
2026-04-23 13:04 -13.84937 -172.27702 2865 ft 256 kts 354°
2026-04-23 13:04 -13.83318 -172.27246 2771 ft 244 kts 49°
2026-04-23 13:04 -13.82788 -172.25668 2746 ft 239 kts 97°
2026-04-23 13:04 -13.83111 -172.23984 2734 ft 230 kts 100°
2026-04-23 13:05 -13.83355 -172.22414 2510 ft 218 kts 95°
2026-04-23 13:05 -13.83307 -172.20901 2311 ft 208 kts 86°
2026-04-23 13:05 -13.83255 -172.19392 2306 ft 210 kts 91°
2026-04-23 13:05 -13.83246 -172.17923 2327 ft 205 kts 89°
2026-04-23 13:06 -13.83174 -172.14905 2266 ft 208 kts 89°
2026-04-23 13:06 -13.83165 -172.13400 2111 ft 205 kts 91°
2026-04-23 13:06 -13.83155 -172.11971 1889 ft 199 kts 88°
2026-04-23 13:07 -13.83112 -172.10568 1580 ft 184 kts 90°
2026-04-23 13:07 -13.83102 -172.09374 1459 ft 156 kts 90°
2026-04-23 13:07 -13.83082 -172.08372 1420 ft 126 kts 90°
2026-04-23 13:07 -13.83076 -172.07495 1079 ft 126 kts 92°
2026-04-23 13:08 -13.83091 -172.06615 886 ft 122 kts 89°
2026-04-23 13:08 -13.83051 -172.05713 714 ft 121 kts 89°
2026-04-23 13:08 -13.83045 -172.04839 557 ft 125 kts 91°
2026-04-23 13:08 -13.83037 -172.03931 409 ft 128 kts 89°
2026-04-23 13:09 -13.83028 -172.03008 254 ft 132 kts 90°
2026-04-23 13:09 -13.83018 -172.02066 104 ft 129 kts 90°
2026-04-23 13:09 -13.83007 -172.01189 47 ft 112 kts 90°
2026-04-23 13:09 -13.83000 -172.00490 36 ft 80 kts 89°
2026-04-23 13:10 -13.82995 -172.00006 35 ft 56 kts 90°
2026-04-23 13:10 -13.83004 -171.99753 34 ft 16 kts 138°
2026-04-23 13:10 -13.83096 -171.99736 34 ft 10 kts 177°
2026-04-23 13:10 -13.83164 -171.99744 36 ft 7 kts 185°
2026-04-23 13:11 -13.83189 -171.99744 40 ft 4 kts 168°
2026-04-23 13:11 -13.83194 -171.99733 42 ft 1 kts 90°
2026-04-23 13:11 -13.83194 -171.99731 42 ft 0 kts 89°